TimeEDT,TemperatureF,Dew PointF,Humidity,Sea Level PressureIn,VisibilityMPH,Wind Direction,Wind SpeedMPH,Gust SpeedMPH,PrecipitationIn,Events,Conditions,WindDirDegrees,DateUTC
12:15 AM,30.6,24.6,79,30.31,10.0,Calm,Calm,-,N/A,,Clear,0,2013-03-29 04:15:00
12:35 AM,29.8,23.9,79,30.31,10.0,Calm,Calm,-,N/A,,Clear,0,2013-03-29 04:35:00
12:55 AM,29.5,24.1,80,30.31,10.0,Calm,Calm,-,N/A,,Clear,0,2013-03-29 04:55:00
1:15 AM,28.9,24.1,82,30.31,10.0,Calm,Calm,-,N/A,,Clear,0,2013-03-29 05:15:00
1:35 AM,29.7,23.7,79,30.31,10.0,Calm,Calm,-,N/A,,Clear,0,2013-03-29 05:35:00
1:55 AM,27.7,24.1,86,30.31,10.0,Calm,Calm,-,N/A,,Clear,0,2013-03-29 05:55:00
2:15 AM,28.4,23.7,83,30.31,10.0,Calm,Calm,-,N/A,,Clear,0,2013-03-29 06:15:00
2:35 AM,28.9,24.1,82,30.32,10.0,Calm,Calm,-,N/A,,Clear,0,2013-03-29 06:35:00
2:55 AM,28.4,23.0,80,30.32,10.0,Calm,Calm,-,N/A,,Clear,0,2013-03-29 06:55:00
3:15 AM,27.5,22.5,81,30.31,10.0,Calm,Calm,-,N/A,,Clear,0,2013-03-29 07:15:00
3:35 AM,26.8,23.9,89,30.31,10.0,Calm,Calm,-,N/A,,Clear,0,2013-03-29 07:35:00
3:55 AM,27.1,24.1,88,30.31,10.0,Calm,Calm,-,N/A,,Clear,0,2013-03-29 07:55:00
4:15 AM,26.6,23.5,88,30.31,10.0,Calm,Calm,-,N/A,,Clear,0,2013-03-29 08:15:00
4:35 AM,26.2,23.4,89,30.31,10.0,Calm,Calm,-,N/A,,Clear,0,2013-03-29 08:35:00
4:55 AM,25.9,22.1,86,30.31,10.0,Calm,Calm,-,N/A,,Clear,0,2013-03-29 08:55:00
5:15 AM,26.6,24.1,90,30.31,10.0,Calm,Calm,-,N/A,,Clear,0,2013-03-29 09:15:00
5:35 AM,26.6,24.3,91,30.31,10.0,Calm,Calm,-,N/A,,Clear,0,2013-03-29 09:35:00
5:55 AM,26.1,21.7,84,30.30,10.0,Calm,Calm,-,N/A,,Clear,0,2013-03-29 09:55:00
6:15 AM,25.5,23.2,91,30.30,10.0,Calm,Calm,-,N/A,,Clear,0,2013-03-29 10:15:00
6:35 AM,25.2,23.4,93,30.31,10.0,Calm,Calm,-,N/A,,Scattered Clouds,0,2013-03-29 10:35:00
6:55 AM,25.2,22.5,89,30.31,10.0,Calm,Calm,-,N/A,,Mostly Cloudy,0,2013-03-29 10:55:00
7:15 AM,24.8,22.8,92,30.32,10.0,Calm,Calm,-,N/A,,Scattered Clouds,0,2013-03-29 11:15:00
7:35 AM,25.5,23.7,93,30.32,10.0,Calm,Calm,-,N/A,,Clear,0,2013-03-29 11:35:00
7:55 AM,26.8,23.4,87,30.33,10.0,Calm,Calm,-,N/A,,Clear,0,2013-03-29 11:55:00
8:15 AM,26.4,23.9,90,30.33,10.0,Calm,Calm,-,N/A,,Clear,0,2013-03-29 12:15:00
8:35 AM,28.6,25.7,89,30.34,10.0,Calm,Calm,-,N/A,,Clear,0,2013-03-29 12:35:00
8:55 AM,30.4,26.4,85,30.34,10.0,Calm,Calm,-,N/A,,Mostly Cloudy,0,2013-03-29 12:55:00
9:15 AM,31.1,26.6,83,30.33,10.0,Calm,Calm,-,N/A,,Overcast,0,2013-03-29 13:15:00
9:35 AM,32.5,27.5,82,30.34,10.0,Calm,Calm,-,N/A,,Overcast,0,2013-03-29 13:35:00
9:55 AM,32.9,28.0,82,30.33,10.0,Calm,Calm,-,N/A,,Overcast,0,2013-03-29 13:55:00
10:15 AM,34.9,27.9,76,30.33,10.0,Calm,Calm,-,N/A,,Overcast,0,2013-03-29 14:15:00
10:35 AM,36.5,29.8,77,30.33,10.0,Calm,Calm,-,N/A,,Overcast,0,2013-03-29 14:35:00
10:55 AM,37.9,28.9,70,30.33,10.0,Calm,Calm,-,N/A,,Overcast,0,2013-03-29 14:55:00
11:15 AM,39.0,29.1,68,30.33,10.0,Calm,Calm,-,N/A,,Overcast,0,2013-03-29 15:15:00
11:35 AM,39.7,29.3,66,30.33,10.0,Calm,Calm,-,N/A,,Overcast,0,2013-03-29 15:35:00
11:55 AM,40.5,28.8,63,30.34,10.0,Calm,Calm,-,N/A,,Overcast,0,2013-03-29 15:55:00
12:15 PM,42.3,28.8,59,30.34,10.0,West,3.5,-,N/A,,Overcast,260,2013-03-29 16:15:00
12:35 PM,42.8,29.5,59,30.33,10.0,West,3.5,-,N/A,,Overcast,280,2013-03-29 16:35:00
12:55 PM,43.3,27.7,54,30.33,10.0,Calm,Calm,-,N/A,,Overcast,0,2013-03-29 16:55:00
1:15 PM,43.0,31.5,64,30.33,10.0,Calm,Calm,-,N/A,Rain,Light Rain,0,2013-03-29 17:15:00
1:35 PM,43.7,30.0,59,30.32,10.0,Calm,Calm,-,N/A,Rain,Light Rain,0,2013-03-29 17:35:00
1:55 PM,43.2,35.6,75,30.32,10.0,NNE,5.8,-,N/A,Rain,Rain,20,2013-03-29 17:55:00
2:15 PM,43.3,36.0,75,30.31,10.0,NNE,4.6,-,N/A,,Overcast,30,2013-03-29 18:15:00
2:35 PM,44.1,35.8,73,30.30,10.0,NE,5.8,-,N/A,,Overcast,50,2013-03-29 18:35:00
2:55 PM,44.8,34.2,66,30.29,10.0,NE,6.9,-,N/A,,Overcast,50,2013-03-29 18:55:00
3:15 PM,45.0,34.0,65,30.29,10.0,ENE,3.5,-,N/A,,Overcast,60,2013-03-29 19:15:00
3:35 PM,44.6,34.2,67,30.29,10.0,ENE,5.8,-,N/A,,Light Drizzle,60,2013-03-29 19:35:00
3:55 PM,44.8,35.6,70,30.28,10.0,East,4.6,-,N/A,,Overcast,90,2013-03-29 19:55:00
4:15 PM,45.7,36.0,69,30.28,10.0,East,4.6,-,N/A,,Overcast,90,2013-03-29 20:15:00
4:35 PM,46.0,36.1,68,30.27,10.0,East,5.8,-,N/A,,Overcast,90,2013-03-29 20:35:00
4:55 PM,46.6,36.0,67,30.27,10.0,East,3.5,-,N/A,,Light Drizzle,80,2013-03-29 20:55:00
5:15 PM,46.4,37.0,70,30.26,10.0,East,4.6,-,N/A,Rain,Light Rain,80,2013-03-29 21:15:00
5:35 PM,46.4,36.7,69,30.26,10.0,ENE,3.5,-,N/A,,Light Drizzle,70,2013-03-29 21:35:00
5:55 PM,45.7,39.2,78,30.26,10.0,NNE,4.6,-,N/A,Rain,Light Rain,30,2013-03-29 21:55:00
6:15 PM,44.4,39.6,83,30.26,10.0,NE,5.8,-,N/A,Rain,Light Rain,40,2013-03-29 22:15:00
6:35 PM,44.6,40.3,85,30.25,10.0,East,3.5,-,N/A,Rain,Light Rain,80,2013-03-29 22:35:00
6:55 PM,44.2,41.5,90,30.25,10.0,East,4.6,-,N/A,,Light Drizzle,90,2013-03-29 22:55:00
7:15 PM,44.1,41.0,89,30.24,10.0,East,4.6,-,N/A,,Overcast,100,2013-03-29 23:15:00
7:35 PM,43.3,41.2,92,30.24,10.0,ENE,4.6,-,N/A,,Overcast,60,2013-03-29 23:35:00
7:55 PM,42.8,41.0,93,30.23,10.0,East,3.5,-,N/A,,Overcast,80,2013-03-29 23:55:00
8:15 PM,42.8,40.3,91,30.23,10.0,Calm,Calm,-,N/A,,Overcast,0,2013-03-30 00:15:00
8:35 PM,43.0,40.1,90,30.23,10.0,Calm,Calm,-,N/A,,Overcast,0,2013-03-30 00:35:00
8:55 PM,42.6,39.9,90,30.23,10.0,NE,3.5,-,N/A,,Overcast,40,2013-03-30 00:55:00
9:15 PM,41.5,40.1,95,30.23,10.0,East,3.5,-,N/A,,Overcast,80,2013-03-30 01:15:00
9:35 PM,42.1,40.1,93,30.23,10.0,Calm,Calm,-,N/A,,Overcast,0,2013-03-30 01:35:00
9:55 PM,42.3,39.7,91,30.23,10.0,ENE,3.5,-,N/A,,Overcast,70,2013-03-30 01:55:00
10:15 PM,41.5,40.1,95,30.23,10.0,Calm,Calm,-,N/A,,Overcast,0,2013-03-30 02:15:00
10:35 PM,41.4,40.3,96,30.24,10.0,Calm,Calm,-,N/A,Rain,Light Rain,0,2013-03-30 02:35:00
10:55 PM,41.4,40.3,96,30.24,10.0,NNE,3.5,-,N/A,,Light Drizzle,30,2013-03-30 02:55:00
11:15 PM,41.7,39.6,92,30.23,10.0,NE,3.5,-,N/A,Rain,Light Rain,50,2013-03-30 03:15:00
11:35 PM,42.3,39.2,89,30.22,10.0,Calm,Calm,-,N/A,Rain,Rain,0,2013-03-30 03:35:00
11:55 PM,41.5,39.7,93,30.22,10.0,Calm,Calm,-,N/A,Rain,Light Rain,0,2013-03-30 03:55:00